Powrót do katalogu

STARLINK-36295

AktywnyŁącznośćSSO
NORAD 68667·PAYLOAD·🇺🇸 United States

Wystrzelony Apr 11, 2026 z Vandenberg Space Force Base

Loading…

Następne Przeloty (najbliższe 24 godziny)

TLE

ŚwieżeSource: CelesTrak SupGP

Epoka: Sep 14, 2026, 23:21 UTC

1 68667C 26077F   26257.97340278  .00078937  00000+0  24514-2 0  2575
2 68667  97.2849 127.9064 0002432  92.6445 262.1645 15.33384394    14

Śledź STARLINK-36295 w czasie rzeczywistym z AllMySat

Download on the App Store